Flag for France Weather past 2 weeks in Villeurbanne, France

Now
64 °F

Clear.


Feels Like: 64 °F
Forecast: 56 / 74 °F
Wind: 10 mph from North

Location: Lyon / Bron

Current Time: Sep 2, 2014 at 11:27:31 PM

Latest Report: Sep 2, 2014 at 11:00 PM


Visibility: N/A

Pressure: 30.04 "Hg

Humidity: 60%

Dew point: 50 °F

Location of VilleurbanneLocation

Historic Weather in Villeurbanne — Graph

°F

Villeurbanne temperature yesterday

Maximum temperature yesterday: 72 °F (at 5:00 PM)
Minimum temperature yesterday: 57 °F (at 4:30 AM)
Average temperature yesterday: 63 °F

Past Weeks' High & Low Weather Summary

 TemperatureHumidityPressure
High82 °F (Aug 28, 6:00 PM)94% (Aug 28, 4:30 AM)30.18 "Hg (Aug 28, 4:30 AM)
Low52 °F (Aug 25, 5:00 AM)32% (Aug 22, 4:30 PM)29.83 "Hg (Aug 26, 4:30 AM)
Average66 °F62%30.04 "Hg
* Reported Aug 18 10:00 PM — Sep 2 10:00 PM, Villeurbanne, Weather by CustomWeather, © 2014

Note: Actual official high and low records may vary slightly from our data, if they occured in-between our weather recording intervals... More about our weather records

Advertising

Villeurbanne weather history for previous 24 hours

 ConditionsComfort  
Time TempWeatherWind HumidityBarometerVisibility
10:00 PM
Sep 2
64 °FClear.13 mph60%30.04 "HgN/A
9:00 PM66 °FClear.13 mph52%30.04 "HgN/A
8:30 PM68 °FClear.14 mph49%30.04 "HgN/A
8:00 PM70 °FClear.13 mph46%30.01 "HgN/A
7:30 PM72 °FClear.17 mph41%30.01 "HgN/A
7:00 PM72 °FClear.17 mph41%30.01 "HgN/A
6:30 PM73 °FClear.16 mph41%30.01 "HgN/A
6:00 PM73 °FClear.20 mph41%30.01 "HgN/A
5:30 PM73 °FClear.18 mph41%30.01 "HgN/A
5:00 PM73 °FClear.20 mph38%30.01 "HgN/A
4:30 PM73 °FClear.21 mph41%30.01 "HgN/A
4:00 PM73 °FClear.20 mph38%30.04 "HgN/A
3:30 PM73 °FClear.20 mph38%30.04 "HgN/A
3:00 PM73 °FClear.15 mph38%30.04 "HgN/A
2:30 PM73 °FClear.16 mph38%30.04 "HgN/A
2:00 PM72 °FClear.15 mph41%30.04 "HgN/A
1:30 PM70 °FClear.14 mph46%30.04 "HgN/A
1:00 PM70 °FClear.14 mph46%30.07 "HgN/A
12:30 PM68 °FClear.13 mph53%30.07 "HgN/A
12:00 PM66 °FClear.12 mph56%30.07 "HgN/A
11:30 AM64 °FClear.12 mph60%30.07 "HgN/A
11:00 AM63 °FClear.9 mph64%30.07 "HgN/A
10:30 AM61 °FClear.9 mph68%30.09 "HgN/A
10:00 AM61 °FClear.9 mph68%30.09 "HgN/A
9:30 AM59 °FClear.8 mph72%30.09 "HgN/A
9:00 AM57 °FClear.7 mph72%30.09 "HgN/A
8:30 AM55 °FClear.10 mph77%30.09 "HgN/A
8:00 AM55 °FClear.8 mph77%30.09 "HgN/A
7:30 AM55 °FClear.7 mph77%30.07 "HgN/A
7:00 AM55 °FClear.8 mph77%30.07 "HgN/A
6:30 AM55 °FClear.6 mph77%30.07 "HgN/A
6:00 AM55 °FClear.3 mph77%30.07 "HgN/A
5:30 AM55 °FClear.3 mph77%30.07 "HgN/A
5:00 AM55 °FClear.3 mph77%30.07 "HgN/A
4:30 AM55 °FClear.5 mph77%30.07 "HgN/A
4:00 AM57 °FClear.3 mph72%30.07 "HgN/A
3:30 AM57 °FClear.6 mph72%30.07 "HgN/A
3:00 AM59 °FClear.5 mph68%30.07 "HgN/A
2:30 AM59 °FClear.9 mph68%30.09 "HgN/A
2:00 AM59 °FClear.12 mph68%30.09 "HgN/A
1:30 AM59 °FClear.12 mph68%30.09 "HgN/A
1:00 AM59 °FClear.12 mph68%30.09 "HgN/A
12:30 AM61 °FClear.9 mph63%30.09 "HgN/A
12:00 AM61 °FClear.10 mph63%30.09 "HgN/A
11:30 PM
Sep 1
61 °FClear.9 mph63%30.09 "HgN/A
11:00 PM61 °FClear.12 mph63%30.09 "HgN/A
Weather by CustomWeather, © 2014

See weather overviewHow to use our weather pages